Regional Weather Roundup
Issued by NWS Northern Indiana

Home | Current Version | Previous Version | Graphics & Text | Print | Product List | Glossary On
Versions: 1 2 3 4 5 6 7 8 9 10 11 12 13 14 15 16 17 18 19 20 21 22 23 24 25 26 27 28 29 30 31 32 33 34 35 36 37 38 39 40 41 42 43 44 45 46 47 48 49 50
258
ASUS43 KIWX 232210
RWRIWX

KIWX WEATHER ROUNDUP
NATIONAL WEATHER SERVICE NORTHERN INDIANA
600 PM EDT FRI JUN 23 2017

NOTE: "FAIR" INDICATES FEW OR NO CLOUDS BELOW 12,000 FEET WITH NO
SIGNIFICANT WEATHER AND/OR OBSTRUCTIONS TO VISIBILITY.

* THESE STATIONS ARE NOT UNDER NWS QUALITY CONTROL. THEY ALSO MAY NOT
  REPORT WEATHER SUCH AS PRECIPITATION OR FOG.

INZ001>027-232300-
NORTHERN INDIANA

CITY           SKY/WX    TMP DP  RH WIND       PRES   REMARKS
GARY*          MOSUNNY   79  43  27 CALM      29.73S
VALPARAISO     CLOUDY    80  51  36 N9        29.73F
MICHIGAN CITY* CLOUDY    75  54  46 N6        29.73S
LAPORTE*       PTSUNNY   76  55  48 N6        29.73F
KNOX*          PTSUNNY   75  43  31 N6        29.72F
SOUTH BEND     PTSUNNY   75  56  51 NW7       29.73S
ELKHART*       PTSUNNY   73  54  49 NW12      29.72S
GOSHEN         CLOUDY    74  52  46 NW14      29.71S
MONTICELLO*    PTSUNNY   74  56  54 N9        29.73S
LOGANSPORT*    PTSUNNY   73  61  64 N13       29.73F
ROCHESTER*     PTSUNNY   77  59  53 N9        29.73S
WARSAW*        CLOUDY    73  59  60 NW12      29.72S
AUBURN*        CLOUDY    73  59  60 W13       29.71R
FORT WAYNE     CLOUDY    73  61  65 NW8       29.71R
HUNTINGTON*    CLOUDY    72  63  74 N9        29.72R
PERU/GRISSOM   PTSUNNY   74  61  63 NW10      29.71S
MARION*        CLOUDY    70  64  83 NW8       29.72F

$$
INZ028>050-232300-
CENTRAL INDIANA

CITY           SKY/WX    TMP DP  RH WIND       PRES   REMARKS
LAFAYETTE      CLOUDY    76  62  62 NW12      29.73S
KOKOMO*        CLOUDY    73  63  70 NW13      29.73S
MUNCIE*        CLOUDY    71  67  87 NW9       29.71S
INDIANAPOLIS   CLOUDY    71  68  90 N12       29.71R

$$
MIZ043>046-050>051-056>058-064>065-071>073-077>080-232300-
SOUTHWEST LOWER MICHIGAN

CITY           SKY/WX    TMP DP  RH WIND       PRES   REMARKS
BATTLE CREEK   MOSUNNY   74  58  57 W10       29.69F
BENTON HARBOR  CLOUDY    75  55  49 W7        29.72S
COLDWATER*     CLOUDY    74  58  55 W13       29.69S
HILLSDALE*     CLOUDY    72  59  64 W13G20    29.68R
HOLLAND        CLOUDY    74  59  59 W8        29.70S
GRAND RAPIDS   CLOUDY    79  47  32 NW12      29.67S
KALAMAZOO      PTSUNNY   74  55  51 W10       29.70S
STURGIS*       CLOUDY    74  58  58 NW8       29.70R
THREE RIVERS*  FAIR      74  55  52 W14G20    29.71R

$$
OHZ001>008-015>018-024>025-232300-
NORTHWEST OHIO

CITY           SKY/WX    TMP DP  RH WIND       PRES   REMARKS
WAUSEON*       PTSUNNY   75  66  73 W10       29.66R
DEFIANCE       CLOUDY    72  64  76 W8        29.68R
FINDLAY        CLOUDY    71  65  81 SW10      29.67S
TOLEDO EXPRESS CLOUDY    72  69  90 W9        29.65R
TOLEDO METCALF CLOUDY    73  70  90 SW14      29.65S
LIMA           CLOUDY    69  67  93 SW10      29.69S

$$
AND FOR LAKE MICHIGAN COASTAL AND OPEN LAKE BUOY OBSERVATIONS

STATION/POSITION TEMP    WIND        PRES    VSBY  WAVE
                 AIR SEA DIR/SP/G                  HT/PER
                 (F)     (DEG/KT/KT) (MB)    (MI)  (FT/S)
CALUMET HARBOR    73     100/  6/  8 1006.1R
MICHIGAN CITY     70      30/  3/  3   N/A
BURNS HARBOR      74      70/  5/  6 1007.1S
SOUTH LAKE BUOY   66 63  220/  8/  8 1005.3R         0
4 MI NW BRIDGMAN  69 69  230/  4/  6 1006.3          1/ 3
MICHIGAN CITY     69 70  110/  2/  2   N/A           1

$$
&&




USA.gov is the U.S. government's official web portal to all federal, state and local government web resources and services.